When you browse on this site, cookies collect data to enhance your experience and personalize the content and advertising you see.
Visit our Privacy Policy to learn more. By continuing to use the site, you agree to this use of cookies and data.
  • In Denmark
  • List of Countries
  • For 7 days
  • Water Temperature
  • Satellite Maps
  • Weather Map
  • Weather Widgets
  • user-avatar
    Login

    Hourly Weather Winnica

    Today, 24 July, Wednesday

    Time Temperature Precipitation Wind Pressure Humidity
    00:00 +21°C° 0 mm 1 mps 751 mmHg 87%
    01:00 +21°C° 0 mm 1 mps 751 mmHg 89%
    02:00 +20°C° 0 mm 1 mps 751 mmHg 90%
    03:00 +20°C° 0 mm 1 mps 750 mmHg 90%
    04:00 +19°C° 0 mm 1 mps 750 mmHg 91%
    05:00 +21°C° 0 mm 1 mps 750 mmHg 87%
    06:00 +22°C° 0 mm 1 mps 750 mmHg 83%
    07:00 +23°C° 0 mm 1 mps 750 mmHg 78%
    08:00 +25°C° 0 mm 1 mps 750 mmHg 70%
    09:00 +26°C° 0 mm 2 mps 751 mmHg 62%
    10:00 +28°C° 0 mm 2 mps 751 mmHg 55%
    11:00 +29°C° 0 mm 2 mps 750 mmHg 49%
    12:00 +29°C° 0 mm 2 mps 750 mmHg 44%
    13:00 +30°C° 0 mm 2 mps 750 mmHg 39%
    14:00 +31°C° 0 mm 1 mps 750 mmHg 37%
    15:00 +31°C° 0 mm 1 mps 750 mmHg 36%
    16:00 +31°C° 0 mm 1 mps 750 mmHg 34%
    17:00 +30°C° 0 mm 1 mps 750 mmHg 42%
    18:00 +28°C° 0 mm 1 mps 749 mmHg 50%
    19:00 +26°C° 0 mm 1 mps 749 mmHg 57%
    20:00 +25°C° 0 mm 1 mps 750 mmHg 64%
    21:00 +23°C° 0 mm 1 mps 750 mmHg 70%
    22:00 +22°C° 0 mm 1 mps 750 mmHg 77%
    23:00 +21°C° 0 mm 1 mps 750 mmHg 78%

    Tomorrow, 25 July, Thursday

    Time Temperature Precipitation Wind Pressure Humidity
    00:00 +21°C° 0 mm 1 mps 750 mmHg 80%
    01:00 +21°C° 0 mm 1 mps 750 mmHg 81%
    02:00 +20°C° 0 mm 1 mps 750 mmHg 80%
    03:00 +20°C° 0 mm 1 mps 750 mmHg 80%
    04:00 +20°C° 0 mm 1 mps 750 mmHg 79%
    05:00 +19°C° 0 mm 0 mps 750 mmHg 75%
    06:00 +21°C° 0 mm 0 mps 750 mmHg 70%
    07:00 +23°C° 0 mm 0 mps 750 mmHg 66%
    08:00 +24°C° 0 mm 0 mps 750 mmHg 61%
    09:00 +28°C° 0 mm 1 mps 751 mmHg 56%
    10:00 +29°C° 0 mm 1 mps 751 mmHg 51%
    11:00 +30°C° 0 mm 1 mps 750 mmHg 47%
    12:00 +31°C° 0 mm 1 mps 750 mmHg 43%
    13:00 +32°C° 0 mm 1 mps 750 mmHg 39%
    14:00 +32°C° 0 mm 1 mps 749 mmHg 39%
    15:00 +32°C° 0 mm 2 mps 749 mmHg 38%
    16:00 +32°C° 0 mm 2 mps 749 mmHg 37%
    17:00 +31°C° 0 mm 2 mps 749 mmHg 44%
    18:00 +29°C° 0 mm 3 mps 749 mmHg 51%
    19:00 +27°C° 0 mm 3 mps 749 mmHg 58%
    20:00 +26°C° 0 mm 2 mps 749 mmHg 62%
    21:00 +24°C° 0 mm 2 mps 749 mmHg 67%
    22:00 +23°C° 0 mm 1 mps 749 mmHg 72%
    23:00 +22°C° 0 mm 1 mps 749 mmHg 75%

    Day after tomorrow, 26 July, Friday

    Time Temperature Precipitation Wind Pressure Humidity
    00:00 +21°C° 0 mm 1 mps 749 mmHg 79%
    01:00 +21°C° 0 mm 1 mps 749 mmHg 82%
    02:00 +20°C° 0 mm 1 mps 749 mmHg 84%
    03:00 +20°C° 0 mm 1 mps 749 mmHg 86%
    04:00 +19°C° 0 mm 1 mps 749 mmHg 88%
    05:00 +20°C° 0 mm 1 mps 749 mmHg 82%
    06:00 +21°C° 0 mm 1 mps 749 mmHg 77%
    07:00 +21°C° 0 mm 2 mps 748 mmHg 71%
    08:00 +23°C° 0 mm 2 mps 748 mmHg 65%
    09:00 +25°C° 0 mm 3 mps 748 mmHg 59%
    10:00 +26°C° 0 mm 3 mps 748 mmHg 52%
    11:00 +27°C° 0 mm 3 mps 748 mmHg 49%
    12:00 +28°C° 0 mm 3 mps 748 mmHg 46%
    13:00 +28°C° 0 mm 4 mps 747 mmHg 43%
    14:00 +28°C° 0 mm 4 mps 747 mmHg 44%
    15:00 +28°C° 0 mm 4 mps 746 mmHg 44%
    16:00 +28°C° 0 mm 4 mps 746 mmHg 45%
    17:00 +27°C° 0 mm 4 mps 746 mmHg 51%
    18:00 +25°C° 0 mm 3 mps 746 mmHg 58%
    19:00 +24°C° 0 mm 3 mps 746 mmHg 65%
    20:00 +23°C° 0 mm 2 mps 746 mmHg 67%
    21:00 +21°C° 0 mm 2 mps 746 mmHg 69%
    22:00 +19°C° 0 mm 2 mps 746 mmHg 71%
    23:00 +19°C° 0 mm 2 mps 746 mmHg 74%

    27 July, Saturday

    Time Temperature Precipitation Wind Pressure Humidity
    00:00 +18°C° 0 mm 2 mps 746 mmHg 77%
    01:00 +17°C° 0 mm 2 mps 746 mmHg 80%
    02:00 +17°C° 0 mm 2 mps 745 mmHg 84%
    03:00 +16°C° 0 mm 1 mps 745 mmHg 87%
    04:00 +16°C° 0 mm 1 mps 745 mmHg 91%
    05:00 +18°C° 0 mm 1 mps 745 mmHg 86%
    06:00 +19°C° 0 mm 2 mps 745 mmHg 81%
    07:00 +20°C° 0 mm 2 mps 745 mmHg 76%
    08:00 +21°C° 0 mm 3 mps 745 mmHg 70%
    09:00 +23°C° 0 mm 4 mps 745 mmHg 64%
    10:00 +26°C° 0 mm 4 mps 745 mmHg 58%
    11:00 +26°C° 0 mm 4 mps 745 mmHg 55%
    12:00 +27°C° 0 mm 5 mps 744 mmHg 52%
    13:00 +28°C° 0 mm 5 mps 744 mmHg 49%
    14:00 +28°C° 0 mm 5 mps 744 mmHg 49%
    15:00 +28°C° 0 mm 5 mps 743 mmHg 49%
    16:00 +28°C° 0 mm 5 mps 743 mmHg 49%
    17:00 +27°C° 0 mm 4 mps 743 mmHg 53%
    18:00 +26°C° 0 mm 4 mps 743 mmHg 57%
    19:00 +25°C° 0 mm 3 mps 743 mmHg 62%
    20:00 +22°C° 0 mm 3 mps 743 mmHg 66%
    21:00 +21°C° 0 mm 3 mps 743 mmHg 70%
    22:00 +20°C° 0 mm 2 mps 743 mmHg 74%
    23:00 +19°C° 0 mm 2 mps 743 mmHg 78%

    28 July, Sunday

    Time Temperature Precipitation Wind Pressure Humidity
    00:00 +19°C° 0 mm 2 mps 743 mmHg 83%
    01:00 +18°C° 0 mm 2 mps 743 mmHg 87%
    02:00 +19°C° 0 mm 1 mps 743 mmHg 89%
    03:00 +18°C° 0 mm 1 mps 743 mmHg 92%
    04:00 +18°C° 0 mm 1 mps 743 mmHg 94%
    05:00 +18°C° 0 mm 2 mps 743 mmHg 90%
    06:00 +20°C° 0 mm 2 mps 743 mmHg 86%
    07:00 +21°C° 0 mm 2 mps 743 mmHg 82%
    08:00 +24°C° 0 mm 3 mps 743 mmHg 75%
    09:00 +25°C° 0 mm 4 mps 743 mmHg 68%
    10:00 +27°C° 0 mm 5 mps 744 mmHg 61%
    11:00 +28°C° 0 mm 5 mps 743 mmHg 58%
    12:00 +29°C° 0 mm 6 mps 743 mmHg 54%
    13:00 +29°C° 0 mm 6 mps 743 mmHg 51%
    14:00 +29°C° 0 mm 6 mps 743 mmHg 51%
    15:00 +29°C° 0 mm 6 mps 743 mmHg 51%
    16:00 +29°C° 0 mm 6 mps 743 mmHg 51%
    17:00 +28°C° 0 mm 5 mps 743 mmHg 54%
    18:00 +27°C° 0 mm 4 mps 743 mmHg 57%
    19:00 +27°C° 0 mm 4 mps 743 mmHg 60%
    20:00 +25°C° 0 mm 3 mps 744 mmHg 64%
    21:00 +24°C° 0 mm 3 mps 744 mmHg 68%
    22:00 +23°C° 0 mm 2 mps 745 mmHg 73%
    23:00 +21°C° 0 mm 2 mps 745 mmHg 76%

    29 July, Monday

    Time Temperature Precipitation Wind Pressure Humidity
    00:00 +21°C° 0 mm 1 mps 745 mmHg 80%
    01:00 +20°C° 0 mm 1 mps 745 mmHg 83%
    02:00 +20°C° 0 mm 1 mps 745 mmHg 86%
    03:00 +20°C° 0 mm 1 mps 746 mmHg 88%
    04:00 +19°C° 0 mm 1 mps 746 mmHg 90%
    05:00 +21°C° 0 mm 1 mps 746 mmHg 86%
    06:00 +22°C° 0 mm 1 mps 746 mmHg 82%
    07:00 +24°C° 0 mm 1 mps 746 mmHg 78%
    08:00 +25°C° 0 mm 2 mps 746 mmHg 71%
    09:00 +27°C° 0 mm 3 mps 747 mmHg 64%
    10:00 +29°C° 0 mm 3 mps 747 mmHg 57%
    11:00 +29°C° 0.1 mm 4 mps 747 mmHg 55%
    12:00 +30°C° 0.1 mm 4 mps 746 mmHg 52%
    13:00 +32°C° 0.1 mm 4 mps 746 mmHg 49%
    14:00 +30°C° 0 mm 4 mps 746 mmHg 52%
    15:00 +30°C° 0 mm 3 mps 746 mmHg 55%
    16:00 +29°C° 0 mm 3 mps 746 mmHg 58%
    17:00 +28°C° 0.1 mm 3 mps 747 mmHg 60%
    18:00 +27°C° 0.1 mm 3 mps 747 mmHg 62%
    19:00 +26°C° 0.1 mm 3 mps 747 mmHg 65%
    20:00 +25°C° 0 mm 3 mps 747 mmHg 64%
    21:00 +22°C° 0 mm 3 mps 748 mmHg 63%
    22:00 +20°C° 0 mm 3 mps 748 mmHg 62%
    23:00 +19°C° 0 mm 2 mps 748 mmHg 65%
    Show more